Temp
89 87 84 84 85 85 84 84 84 83 83 83 83 83 83 83 83 83 83 84 84 84 85 85 85 85 84 84 84 84 83 83 83 83 83 83 83 83 83 82 84 83 82
91 89 84 84 84 84 84 84 84 83 83 83 83 83 83 83 84 84 84 83 84 84 84 84 85 85 84 84 84 84 83 83 83 84 84 84 84 83 83 84 84 82 82
92 89 88 84 84 84 84 84 84 83 83 83 83 83 83 83 84 84 84 84 84 84 84 84 84 85 83 84 83 84 84 83 83 84 84 84 82 82 83 83 82 82 82
93 91 89 83 84 84 83 84 84 84 84 83 83 83 84 84 84 84 84 84 84 84 84 84 85 84 84 83 83 84 83 83 83 83 82 87 87 83 83 82 82 82 82
94 94 85 83 84 84 83 83 84 84 84 84 84 84 84 84 84 84 84 84 84 84 84 84 85 84 84 83 83 83 83 83 84 82 77 79 81 83 83 82 82 82 82
96 91 84 84 84 84 83 83 83 83 83 84 84 84 84 84 84 84 84 84 84 84 84 84 85 84 84 83 83 83 83 83 84 84 82 83 81 83 83 84 83 82 81
91 88 86 83 84 83 83 83 83 83 83 84 84 84 84 84 84 84 84 84 84 84 84 84 84 84 84 83 83 83 83 83 84 84 84 82 81 82 83 83 82 82 82
91 90 86 84 83 83 84 83 83 84 84 84 84 84 84 84 84 84 84 84 84 84 83 84 84 84 83 83 83 82 82 83 86 82 84 82 80 82 83 82 82 81 81
89 89 87 86 85 84 84 84 84 84 84 84 84 84 84 84 84 85 84 84 84 84 84 83 84 84 83 83 83 82 82 83 82 81 86 81 80 82 83 82 82 81 81
92 90 88 86 86 85 84 84 84 84 84 84 84 84 84 85 85 85 84 83 84 84 84 84 83 84 83 83 82 82 82 83 84 81 79 81 81 82 83 82 82 81 81
91 91 89 87 86 84 84 84 83 84 84 84 84 84 84 85 84 86 85 83 84 84 84 84 84 83 82 83 82 82 83 82 85 81 75 79 81 82 83 82 81 81 81
88 85 89 90 88 86 85 80 83 85 85 83 84 84 83 82 82 87 85 84 85 84 84 84 83 82 82 83 82 82 82 84 85 78 75 78 81 82 82 81 81 81 81
89 85 85 88 87 86 82 81 80 82 82 78 82 81 83 82 81 86 79 83 82 84 84 84 83 83 83 82 82 81 82 82 84 84 80 79 81 82 82 81 81 81 81
88 90 88 86 85 85 82 85 84 81 79 77 76 79 79 80 81 81 83 79 80 79 79 78 75 79 82 82 83 82 82 82 83 83 80 79 81 82 81 81 81 81 81
89 89 87 88 84 84 81 76 78 75 70 70 72 80 82 82 81 84 83 81 81 81 73 71 70 70 73 79 79 81 83 82 83 82 78 82 81 81 81 82 81 81 81
91 87 88 87 87 87 84 86 82 73 70 71 70 83 82 83 82 82 80 81 80 81 76 73 72 70 70 71 79 81 82 82 82 82 83 80 81 81 81 82 82 81 81
92 92 88 88 88 85 84 84 84 81 74 72 70 81 82 83 82 81 80 78 79 79 74 69 71 68 68 68 78 78 82 82 82 81 81 81 79 81 81 81 81 81 81
91 89 89 91 88 84 82 83 84 85 87 88 86 81 83 83 83 81 80 79 82 78 72 70 69 68 68 69 72 77 76 79 80 80 80 81 79 84 81 81 81 80 81
90 88 86 88 88 84 82 82 83 87 86 85 86 85 84 85 85 80 82 80 81 79 74 74 72 70 70 73 76 73 75 77 80 83 80 79 81 79 79 81 80 80 81
88 88 85 85 86 83 74 74 78 82 86 82 83 78 74 81 84 81 81 79 78 79 79 77 75 75 74 75 82 82 79 80 80 80 80 81 79 80 79 77 78 78 80
88 83 84 83 81 77 72 70 72 77 81 81 75 72 70 71 82 81 79 77 77 76 78 77 75 71 69 71 72 77 79 80 79 81 80 80 80 81 80 77 76 75 76
86 85 83 81 79 78 72 73 74 76 82 82 82 78 75 79 82 82 78 76 76 74 74 76 75 71 72 75 73 72 69 76 81 82 81 80 79 80 81 79 76 75 74
84 84 82 79 78 78 76 75 75 76 76 77 77 78 81 85 84 82 80 78 76 75 73 74 74 73 70 72 76 71 67 66 74 76 76 76 77 76 78 78 77 76 75
84 86 82 80 78 79 79 78 79 74 73 77 81 79 83 84 84 83 80 79 76 75 74 74 74 74 73 70 73 75 74 73 68 67 72 74 76 76 76 75 76 76 76
87 87 84 80 79 80 79 80 78 77 76 82 82 81 81 79 82 82 79 79 77 75 75 74 74 73 73 71 71 70 70 73 73 69 68 71 74 77 77 74 76 76 76
86 86 84 79 79 81 82 82 82 81 80 79 79 78 80 78 78 77 80 77 77 75 75 74 75 74 72 72 72 71 69 68 69 69 68 70 72 75 74 73 73 73 73
MSLP
1010.05 1011.03 1011.66 1012.04 1012.26 1012.51 1012.80 1013.20 1013.56 1013.86 1014.23 1014.42 1014.69 1015.07 1015.16 1015.46 1015.70 1015.86 1016.11 1016.25 1016.60 1016.70 1016.88 1016.99 1017.21 1017.36 1017.51 1017.63 1017.76 1017.93 1017.99 1017.96 1018.06 1018.19 1018.56 1018.81 1018.85 1018.97 1019.17 1019.30 1019.16 1019.73 1020.06
1009.81 1010.91 1011.75 1012.17 1012.40 1012.72 1013.04 1013.41 1013.79 1014.17 1014.49 1014.91 1015.04 1015.24 1015.49 1015.76 1016.05 1016.25 1016.42 1016.74 1016.67 1016.89 1017.06 1017.14 1017.28 1017.42 1017.67 1017.75 1017.90 1018.07 1018.17 1018.21 1018.28 1018.44 1018.63 1018.91 1019.09 1019.28 1019.37 1019.22 1019.49 1020.04 1020.29
1009.84 1011.13 1011.83 1012.38 1012.77 1013.18 1013.40 1013.70 1013.96 1014.37 1014.70 1015.05 1015.31 1015.50 1015.75 1016.00 1016.29 1016.47 1016.68 1016.97 1016.95 1017.07 1017.18 1017.33 1017.36 1017.50 1017.85 1017.87 1018.09 1018.20 1018.28 1018.37 1018.48 1018.54 1018.54 1018.85 1019.25 1019.49 1019.55 1019.71 1019.84 1020.26 1020.48
1009.92 1010.96 1011.93 1012.64 1013.01 1013.34 1013.68 1014.04 1014.36 1014.54 1014.85 1015.16 1015.38 1015.69 1016.01 1016.19 1016.46 1016.68 1016.93 1017.16 1017.14 1017.27 1017.30 1017.41 1017.44 1017.58 1017.74 1018.02 1018.13 1018.16 1018.27 1018.52 1018.64 1018.77 1018.72 1018.64 1018.98 1019.68 1019.83 1020.03 1020.22 1020.47 1020.71
1010.16 1010.98 1012.45 1012.96 1013.32 1013.61 1013.96 1014.29 1014.60 1014.85 1015.06 1015.38 1015.63 1015.85 1016.14 1016.34 1016.50 1016.69 1016.98 1017.12 1017.22 1017.32 1017.29 1017.47 1017.54 1017.61 1017.70 1018.01 1018.22 1018.21 1018.12 1018.50 1018.71 1019.03 1018.93 1019.02 1019.16 1019.75 1020.05 1020.19 1020.43 1020.62 1020.72
1009.89 1011.31 1012.58 1013.01 1013.46 1013.82 1014.11 1014.46 1014.74 1014.93 1015.24 1015.47 1015.77 1015.96 1016.24 1016.39 1016.51 1016.70 1016.94 1017.09 1017.20 1017.26 1017.32 1017.42 1017.44 1017.52 1017.62 1017.96 1018.14 1018.16 1018.07 1018.34 1018.68 1018.75 1018.77 1018.78 1019.24 1019.80 1020.17 1020.26 1020.44 1020.71 1020.98
1010.43 1011.74 1012.82 1013.36 1013.69 1014.04 1014.28 1014.42 1014.76 1015.05 1015.42 1015.66 1015.92 1016.06 1016.24 1016.37 1016.58 1016.69 1016.86 1017.06 1017.19 1017.35 1017.32 1017.39 1017.44 1017.51 1017.66 1017.88 1018.01 1018.00 1018.13 1018.23 1018.35 1018.36 1018.73 1018.90 1019.28 1019.76 1020.21 1020.42 1020.69 1020.86 1021.08
1010.73 1011.68 1012.70 1013.74 1014.03 1014.30 1014.54 1014.70 1015.01 1015.27 1015.49 1015.79 1016.01 1016.13 1016.25 1016.40 1016.66 1016.85 1016.98 1017.17 1017.31 1017.41 1017.50 1017.47 1017.40 1017.53 1017.72 1017.86 1017.96 1018.04 1018.10 1018.27 1018.47 1018.75 1018.64 1018.94 1019.35 1019.72 1020.06 1020.53 1020.76 1020.96 1021.17
1010.95 1011.87 1012.60 1013.41 1014.03 1014.31 1014.71 1014.98 1015.13 1015.38 1015.59 1015.82 1016.13 1016.37 1016.48 1016.55 1016.75 1016.87 1016.97 1017.07 1017.25 1017.33 1017.45 1017.56 1017.52 1017.71 1017.80 1017.91 1018.01 1018.11 1018.11 1018.38 1018.48 1018.52 1018.55 1019.04 1019.50 1019.83 1020.04 1020.46 1020.80 1020.98 1021.16
1010.64 1011.50 1012.08 1013.09 1013.76 1014.31 1014.72 1015.25 1015.50 1015.60 1015.83 1016.14 1016.29 1016.39 1016.56 1016.63 1016.57 1016.61 1016.76 1016.91 1017.03 1017.18 1017.30 1017.51 1017.71 1017.70 1017.85 1017.88 1018.09 1018.25 1018.23 1018.31 1018.28 1018.38 1018.94 1019.09 1019.25 1019.68 1020.04 1020.42 1020.75 1020.95 1021.17
1010.88 1011.29 1011.84 1012.63 1013.40 1013.92 1014.51 1015.27 1015.72 1015.81 1015.95 1016.13 1016.39 1016.48 1016.48 1016.42 1016.36 1016.46 1016.52 1016.71 1016.90 1017.15 1017.34 1017.50 1017.63 1017.81 1018.00 1017.95 1018.05 1018.29 1018.36 1018.08 1018.00 1018.33 1018.84 1019.20 1019.38 1019.50 1019.88 1020.37 1020.58 1020.97 1021.16
1010.86 1011.58 1011.99 1012.56 1013.09 1013.83 1014.44 1014.71 1015.12 1015.47 1015.67 1015.84 1015.95 1016.24 1016.36 1016.19 1016.05 1015.80 1016.09 1016.43 1016.61 1016.77 1016.97 1017.28 1017.58 1017.81 1018.06 1017.79 1017.95 1018.35 1018.33 1017.87 1017.73 1018.32 1018.95 1018.54 1019.05 1019.46 1019.72 1020.25 1020.54 1020.81 1021.05
1010.77 1011.54 1011.88 1012.37 1012.87 1013.76 1014.27 1014.45 1014.70 1014.73 1015.00 1015.47 1015.94 1016.08 1015.87 1015.88 1015.86 1015.67 1016.16 1016.50 1016.51 1016.68 1016.76 1017.09 1017.41 1017.65 1017.63 1017.51 1017.78 1018.13 1018.15 1017.88 1017.52 1017.71 1018.54 1018.71 1018.78 1019.12 1019.60 1020.02 1020.28 1020.51 1020.82
1010.48 1010.97 1011.77 1012.23 1012.80 1013.35 1013.56 1012.99 1013.20 1014.31 1014.79 1015.56 1015.86 1015.81 1015.82 1015.60 1015.50 1015.42 1015.46 1016.19 1016.32 1016.61 1016.63 1016.81 1017.20 1017.55 1017.28 1017.33 1017.42 1017.62 1017.75 1017.63 1017.34 1017.42 1017.94 1018.28 1018.69 1018.88 1019.20 1019.61 1019.93 1020.18 1020.37
1010.09 1010.72 1011.53 1012.27 1012.59 1013.04 1012.85 1012.25 1012.38 1014.33 1015.18 1015.59 1016.24 1015.61 1015.26 1015.51 1015.46 1015.16 1015.56 1015.83 1016.08 1016.04 1016.84 1016.90 1017.53 1018.29 1019.34 1017.82 1017.54 1017.56 1017.29 1017.60 1017.31 1017.35 1017.82 1018.17 1018.45 1018.65 1018.61 1019.05 1019.46 1019.80 1020.22
1009.69 1010.51 1011.46 1012.14 1012.48 1012.79 1012.98 1012.53 1012.89 1014.28 1014.69 1013.98 1015.35 1015.06 1015.02 1015.10 1015.23 1015.45 1016.12 1015.94 1015.96 1016.07 1016.59 1016.89 1017.40 1017.67 1019.24 1019.08 1017.30 1016.90 1016.81 1017.02 1017.24 1017.11 1017.24 1017.67 1018.01 1018.14 1018.13 1018.41 1018.86 1019.34 1019.87
1009.50 1010.18 1011.18 1011.84 1012.37 1012.88 1013.16 1013.16 1013.24 1013.52 1014.35 1014.40 1015.30 1014.60 1014.45 1014.86 1014.85 1015.21 1016.02 1016.00 1015.51 1015.92 1016.51 1017.22 1017.17 1017.49 1017.87 1018.42 1017.40 1016.32 1016.15 1016.40 1016.80 1016.86 1017.02 1017.06 1017.53 1017.50 1017.72 1017.96 1018.26 1018.75 1019.30
1009.45 1010.16 1010.92 1011.59 1012.12 1012.72 1013.22 1013.35 1013.21 1013.27 1013.24 1013.34 1013.56 1014.17 1014.32 1014.59 1014.60 1014.96 1015.50 1015.46 1014.75 1015.49 1016.16 1016.97 1017.90 1016.94 1017.43 1017.78 1015.82 1015.65 1015.63 1015.68 1016.11 1016.37 1016.54 1016.82 1016.89 1016.90 1017.36 1017.41 1017.74 1018.12 1018.58
1009.55 1010.27 1011.14 1011.91 1012.32 1012.88 1013.31 1013.62 1013.46 1013.15 1013.02 1013.14 1013.45 1013.46 1013.30 1013.35 1013.87 1014.48 1014.87 1014.88 1014.59 1014.81 1015.72 1016.15 1016.60 1017.15 1016.69 1016.15 1015.47 1015.43 1015.50 1015.18 1015.70 1015.81 1015.96 1016.30 1016.32 1016.59 1016.82 1017.05 1017.23 1017.65 1018.03
1009.59 1010.40 1011.31 1012.34 1012.76 1013.47 1014.28 1014.50 1014.21 1013.63 1013.14 1013.71 1013.45 1014.23 1015.28 1014.22 1013.70 1014.13 1014.22 1014.33 1014.66 1014.62 1014.73 1015.12 1015.37 1015.94 1016.07 1015.92 1015.00 1014.17 1014.53 1014.74 1015.34 1015.45 1015.50 1015.48 1015.87 1016.04 1016.46 1016.60 1016.96 1017.21 1017.43
1009.96 1010.76 1011.46 1012.17 1013.00 1013.74 1014.46 1014.77 1014.43 1014.18 1013.84 1014.19 1014.20 1014.44 1014.30 1014.56 1014.18 1014.10 1014.08 1014.21 1014.08 1014.60 1014.54 1014.36 1014.97 1015.64 1015.40 1014.92 1015.11 1014.42 1014.29 1014.41 1014.90 1014.83 1014.72 1014.87 1015.16 1015.57 1015.83 1016.06 1016.40 1016.86 1017.16
1010.38 1010.99 1011.62 1012.43 1013.25 1013.76 1013.74 1014.38 1014.30 1014.33 1013.79 1014.00 1013.77 1014.04 1013.97 1013.73 1013.59 1013.33 1013.84 1014.08 1014.08 1014.10 1014.16 1014.27 1014.52 1015.47 1015.38 1015.20 1014.90 1014.70 1014.72 1014.48 1014.02 1014.08 1014.35 1014.76 1015.01 1015.08 1015.35 1015.44 1015.87 1016.52 1016.88
1010.72 1011.20 1011.84 1012.79 1013.51 1013.87 1013.85 1014.07 1014.26 1014.26 1014.13 1014.26 1014.08 1013.60 1013.35 1013.04 1012.87 1013.08 1013.34 1013.49 1013.76 1013.84 1013.68 1013.57 1013.89 1014.46 1014.75 1014.56 1014.40 1014.88 1014.94 1014.49 1014.01 1013.57 1014.47 1014.81 1014.94 1014.97 1015.05 1015.04 1015.32 1015.70 1016.06
1010.83 1011.27 1011.86 1012.83 1013.40 1013.81 1014.06 1014.09 1014.09 1014.10 1014.09 1013.92 1013.58 1013.66 1013.32 1012.98 1012.94 1013.24 1013.27 1013.01 1013.32 1013.34 1013.33 1013.36 1013.48 1013.64 1014.03 1014.45 1014.63 1014.62 1014.67 1014.96 1014.75 1014.77 1015.04 1014.94 1014.76 1014.79 1014.92 1014.98 1015.01 1015.16 1015.54
1010.40 1010.91 1011.72 1012.76 1013.30 1013.53 1013.83 1013.85 1013.87 1013.90 1013.64 1013.36 1013.46 1013.49 1013.31 1013.17 1013.11 1013.30 1013.28 1012.98 1013.05 1013.03 1013.04 1013.12 1013.18 1013.25 1013.71 1014.02 1014.36 1014.49 1014.63 1014.43 1014.54 1014.85 1014.82 1014.85 1014.63 1014.47 1014.62 1014.76 1014.71 1015.15 1015.69
1010.61 1011.19 1011.78 1012.68 1013.21 1013.44 1013.58 1013.63 1013.67 1013.73 1013.70 1013.72 1013.82 1013.83 1013.41 1013.37 1013.36 1013.50 1013.01 1013.01 1012.81 1012.85 1012.84 1012.88 1012.90 1013.02 1013.26 1013.73 1014.13 1014.46 1014.61 1014.63 1014.36 1014.56 1014.79 1014.90 1014.63 1014.36 1014.53 1014.50 1014.94 1015.33 1015.70
Wind_Speed
18 17 15 13 12 13 15 16 15 15 13 13 13 12 12 11 10 10 10 11 9 8 7 7 6 6 6 8 9 9 11 12 13 14 13 12 11 11 9 10 15 14 14
22 18 16 14 14 13 14 15 14 14 14 12 12 12 12 11 10 9 9 8 10 7 5 5 6 6 6 8 9 9 9 11 11 13 14 11 11 11 7 4 19 14 13
21 18 16 15 15 14 14 14 15 14 14 13 12 12 12 11 11 10 11 9 9 8 6 5 5 7 6 8 9 9 9 9 9 12 15 8 8 11 14 15 17 14 13
20 17 16 15 15 14 13 13 13 14 14 13 13 12 11 11 10 10 9 8 8 7 6 5 6 9 7 8 10 10 8 8 9 7 6 9 11 11 12 13 13 13 12
17 18 16 15 14 14 13 13 13 12 13 12 12 12 11 11 10 9 8 7 7 6 6 6 7 8 9 10 10 9 9 8 8 5 7 3 7 11 11 12 11 12 11
18 20 16 15 14 14 14 13 13 13 12 11 11 11 10 10 9 9 8 6 6 6 5 5 8 8 10 11 11 9 7 5 6 8 5 6 9 14 11 8 11 11 13
20 18 15 14 13 13 13 13 12 12 11 11 10 10 10 9 8 8 7 6 6 6 6 7 8 8 10 11 11 10 7 7 5 5 3 9 12 15 11 11 11 11 11
19 18 16 13 12 12 11 12 12 11 11 10 10 10 9 9 8 8 8 7 7 6 4 3 7 8 10 11 11 9 9 9 4 4 4 8 15 15 13 11 10 10 9
18 16 13 12 11 11 11 11 11 11 10 10 9 7 7 8 9 8 8 8 7 6 6 5 5 6 9 11 12 11 11 7 5 3 2 7 15 15 15 12 11 10 10
17 15 15 12 10 9 9 10 10 10 10 8 7 7 7 8 11 12 10 8 8 7 7 6 4 6 7 9 11 11 10 7 5 4 5 7 17 16 15 13 11 10 10
8 10 13 14 11 10 10 9 8 10 9 9 7 9 9 7 9 11 8 14 10 7 6 7 8 5 6 8 9 9 9 4 5 4 3 6 13 15 15 12 12 9 10
9 12 9 12 11 9 6 10 9 9 7 7 7 7 6 6 6 9 12 14 13 11 9 8 7 9 8 6 5 9 4 6 3 7 2 11 13 14 16 13 12 12 11
7 9 7 10 10 7 6 6 3 3 3 2 3 6 7 3 5 3 4 5 5 9 6 7 7 6 8 4 5 6 7 6 3 4 10 14 14 16 17 14 12 12 12
11 8 10 9 8 9 7 9 10 4 4 4 5 10 6 3 4 3 3 6 3 3 1 4 3 5 7 8 6 8 4 4 2 3 11 22 16 17 17 16 14 14 13
12 11 10 8 7 6 7 2 6 8 5 3 6 9 5 4 4 1 2 4 3 4 3 3 7 7 15 7 6 8 6 5 5 2 5 18 19 18 17 17 16 16 13
13 13 10 9 6 4 4 1 3 7 7 8 4 11 9 6 3 2 2 2 2 1 4 3 8 6 11 17 9 9 6 6 6 4 3 9 18 17 17 17 18 17 16
9 10 14 12 11 8 5 4 4 6 8 6 5 14 9 7 5 5 4 6 5 3 6 1 6 6 11 14 15 8 6 7 7 6 6 2 8 18 19 18 18 17 17
9 8 9 7 9 8 7 5 5 5 3 5 4 5 8 9 6 4 6 5 6 6 5 5 5 6 9 13 8 8 7 6 9 8 5 4 5 8 14 19 19 18 18
10 9 7 4 3 6 5 3 4 2 3 1 1 3 6 5 5 6 6 6 4 5 7 7 8 7 6 9 8 3 9 6 6 8 8 7 7 4 4 15 20 19 20
9 10 8 4 4 4 6 6 7 4 0 5 5 10 19 6 4 5 5 7 4 4 5 6 8 7 7 9 9 6 7 6 6 4 7 6 5 4 6 7 9 11 20
9 7 7 7 7 6 4 3 5 3 1 2 5 7 9 11 8 4 4 7 6 5 8 8 5 3 4 10 4 3 2 6 9 9 6 5 7 7 6 7 6 6 8
8 6 6 7 4 4 5 4 1 3 2 1 3 4 10 12 6 4 5 5 7 7 9 8 6 6 7 7 2 0 3 6 8 11 6 5 6 7 8 7 7 9 7
7 7 7 7 6 3 2 1 1 3 4 3 4 5 1 2 4 2 5 4 5 5 7 8 6 8 6 4 5 4 4 4 4 2 6 3 6 4 4 5 7 10 13
10 9 9 7 7 4 1 2 2 4 4 3 4 4 2 5 4 4 6 5 5 4 6 7 5 7 5 5 1 4 6 3 3 0 2 5 4 5 6 4 5 7 7
8 7 10 9 6 6 6 5 2 3 6 3 3 5 5 5 3 5 4 5 5 4 5 6 7 7 5 5 3 2 3 4 5 4 1 2 2 4 5 5 6 3 4
7 7 7 9 6 7 3 4 2 3 4 4 5 6 5 1 4 7 7 6 5 5 5 5 5 7 6 5 3 4 3 3 3 3 3 2 2 2 3 1 3 1 5
Wind_Direction
118 121 119 114 115 118 119 122 124 128 126 125 124 123 119 114 108 109 113 117 124 130 137 137 134 122 118 105 104 102 98 98 97 99 97 97 100 97 104 132 121 97 97
124 127 121 118 113 117 120 123 123 123 123 125 125 127 122 117 113 114 126 133 123 126 132 142 147 145 138 122 121 118 118 118 120 119 118 113 101 87 72 162 96 105 110
125 128 129 119 113 110 114 123 125 125 127 129 127 126 124 124 122 121 121 128 118 121 118 123 141 163 160 138 134 132 137 143 141 148 148 131 108 94 91 95 103 109 104
124 141 132 118 115 113 112 117 121 125 130 130 129 129 131 132 130 129 132 130 119 112 119 123 126 147 143 142 147 145 163 161 162 166 207 125 125 107 104 102 108 115 114
131 130 117 115 115 118 117 119 123 123 126 129 134 135 136 137 139 135 134 127 125 122 129 140 137 134 134 144 151 151 178 187 168 152 241 282 126 122 120 119 124 125 126
142 115 125 124 123 125 124 122 125 126 131 133 138 141 146 146 149 143 148 147 139 136 134 146 150 147 140 151 155 160 195 202 208 201 172 107 111 130 132 132 128 120 117
108 124 125 123 126 129 133 134 133 132 135 140 149 152 159 158 157 149 147 143 144 153 152 154 148 152 155 161 165 168 197 221 237 265 226 118 126 138 140 127 120 120 127
123 127 130 123 129 132 139 138 137 138 145 153 160 163 160 155 156 149 146 143 153 167 145 163 161 157 168 169 170 178 205 219 217 269 182 129 140 143 142 136 138 136 133
126 128 128 140 140 146 151 148 147 152 156 161 163 163 165 176 164 155 155 152 163 174 181 186 172 172 177 177 181 184 209 221 238 289 80 123 146 147 144 148 153 151 150
133 142 141 149 157 162 159 160 162 161 163 168 172 172 194 178 174 173 167 172 167 184 191 189 194 177 190 181 194 195 208 231 253 274 62 155 156 154 150 158 164 162 160
117 135 150 149 160 169 158 163 174 172 165 174 190 201 206 219 192 177 191 161 170 180 194 199 195 190 210 197 198 205 219 229 193 86 82 146 161 157 153 168 169 173 170
169 140 161 157 161 160 163 146 179 180 183 188 201 185 226 233 174 177 166 168 173 180 196 198 196 192 204 199 194 206 221 245 215 122 177 200 180 165 161 173 173 176 179
210 157 148 171 146 153 180 167 198 178 160 136 239 242 244 231 218 172 134 178 182 190 192 188 182 205 200 254 183 202 216 229 221 156 175 191 179 170 171 175 181 184 184
185 167 152 139 158 181 176 190 173 182 167 175 174 228 243 228 210 266 198 156 196 184 38 49 9 332 220 197 233 210 229 253 221 177 166 183 185 179 174 178 187 194 195
157 164 158 156 164 175 189 135 211 102 101 261 290 230 213 240 256 204 36 11 348 118 117 131 76 7 302 205 227 245 194 235 251 285 146 176 185 184 174 180 194 200 200
165 155 151 163 154 180 235 242 79 124 165 241 230 237 198 219 212 239 195 259 272 280 114 138 122 111 311 307 224 225 215 202 217 213 219 177 187 186 182 183 194 202 199
147 152 153 168 168 164 180 201 202 175 191 212 218 234 183 204 223 192 199 229 223 169 118 248 114 98 256 267 244 210 218 211 205 205 218 235 195 192 190 189 194 197 204
157 144 148 173 159 160 170 200 214 211 265 205 143 181 194 210 209 226 233 238 201 162 145 162 195 146 230 252 242 200 196 213 211 203 193 199 240 203 202 195 195 200 200
129 135 120 106 159 148 171 197 227 173 246 266 54 259 202 199 199 219 249 249 199 186 171 192 195 195 219 250 241 119 260 175 235 195 189 200 237 229 187 206 200 202 202
143 129 124 152 172 98 66 358 288 202 210 28 322 35 6 279 223 252 259 276 279 262 243 225 218 210 220 231 247 220 185 191 215 229 196 189 204 241 226 186 203 210 200
127 132 168 177 95 106 114 69 290 311 199 137 274 98 190 273 285 274 270 276 274 240 251 252 240 183 296 272 230 340 240 193 200 215 181 186 200 215 232 222 185 194 199
134 147 155 105 110 162 134 199 131 301 308 236 253 190 207 233 264 255 255 265 270 272 258 248 246 205 230 237 236 194 272 266 230 200 193 174 219 193 215 206 169 178 199
146 161 147 135 147 109 120 129 197 297 297 304 262 275 72 320 277 297 274 273 262 256 267 266 249 221 224 247 217 190 242 245 335 130 158 198 222 205 217 213 193 193 206
166 180 137 143 147 143 203 305 200 255 289 241 236 95 325 248 235 266 276 287 276 265 264 263 255 231 206 216 212 247 270 272 324 169 182 226 225 189 202 221 201 211 211
152 155 142 155 148 165 194 222 263 296 264 39 15 334 282 319 60 333 336 321 301 281 267 264 261 237 209 215 181 165 264 297 205 216 249 265 183 230 226 209 206 226 208
130 138 134 133 186 164 198 192 184 347 11 359 359 303 6 122 74 11 344 340 307 295 279 267 259 253 217 212 201 212 214 246 254 182 199 256 285 227 103 53 105 34 290